Volver al catálogo

USA 215

ActivoMilitarLEO
NORAD 37162·PAYLOAD·🇺🇸 United States

Lanzado Sep 21, 2010 desde Vandenberg Space Force Base

Loading…

Próximos Pases (próximas 24 horas)

TLE

ObsoletoSource: Mike McCants

Época: Aug 11, 2026, 02:51 UTC

1 37162U 10046A   26223.11926150 0.00000000  00000-0  00000-0 0    03
2 37162 123.0058 106.8279 0006023  65.6763 294.3237 13.41433874    05

Sigue USA 215 en tiempo real con AllMySat

Download on the App Store